Change the Weather History Date:

Tuesday, April 22, 2014

  Actual Average Record
Temperature  
Mean Temperature 58 °F -  
Max Temperature 73 °F 65 °F 85 °F (1965)
Min Temperature 42 °F 34 °F 22 °F (1973)
Degree Days  
Heating Degree Days 8    
Growing Degree Days 8 (Base 50)    
Moisture  
Dew Point 38 °F    
Average Humidity 56    
Maximum Humidity 82    
Minimum Humidity 17    
Precipitation  
Precipitation 0.05 in - - ()
Sea Level Pressure  
Sea Level Pressure 29.93 in    
Wind  
Wind Speed 12 mph (SSW)    
Max Wind Speed 29 mph    
Max Gust Speed 41 mph    
Visibility 10 miles    
Events Rain , Thunderstorm    
Averages and records for this station are not official NWS values.
T = Trace of Precipitation, MM = Missing Value Source: NWS Daily Summary

Daily Weather History Graph

Daily Weather History Graph

Search for Another Location

Airport or City:

Trip Planner

Search our weather history database for the weather conditions in past years. The results will help you decide how hot, cold, wet, or windy it might be!

Date:

Astronomy

Apr. 22, 2014 Rise Set
Actual Time 6:18 AM MDT 7:39 PM MDT
Civil Twilight 5:52 AM MDT 8:06 PM MDT
Nautical Twilight 5:20 AM MDT 8:38 PM MDT
Astronomical Twilight 4:47 AM MDT 9:11 PM MDT
Moon 1:55 AM MDT (4/22) 12:57 PM MDT (4/22)
Length of Visible Light 14h 14m
Length of Day
13h 20m
Last Quarter, 45% of the Moon is Illuminated
Apr 22
Last Quarter
Apr 29
New
May 6
First Quarter
May 14
Full
May 21
Last Quarter

Hourly Weather History & Observations

Time (MDT) Temp. Windchill Dew Point Humidity Pressure Visibility Wind Dir Wind Speed Gust Speed Precip Events Conditions
12:53 AM 46.0 °F 43.9 °F 37.9 °F 73% 30.12 in 10.0 mi North 4.6 mph - N/A   Scattered Clouds
1:53 AM 45.0 °F 42.6 °F 37.0 °F 74% 30.08 in 10.0 mi NW 4.6 mph - N/A   Clear
2:53 AM 46.9 °F - 37.0 °F 68% 30.06 in 10.0 mi Calm Calm - N/A   Clear
3:53 AM 43.0 °F 40.3 °F 35.1 °F 74% 30.09 in 10.0 mi SSW 4.6 mph - N/A   Clear
4:53 AM 43.0 °F 36.8 °F 36.0 °F 76% 30.10 in 10.0 mi SSW 11.5 mph - N/A   Clear
5:53 AM 44.1 °F 40.1 °F 36.0 °F 73% 30.10 in 10.0 mi WSW 6.9 mph - N/A   Scattered Clouds
6:53 AM 42.1 °F 36.6 °F 37.0 °F 82% 30.10 in 10.0 mi WSW 9.2 mph - N/A   Partly Cloudy
7:53 AM 48.9 °F - 42.1 °F 77% 30.09 in 10.0 mi South 12.7 mph - N/A   Clear
8:53 AM 53.1 °F - 43.0 °F 69% 30.04 in 10.0 mi SSW 19.6 mph - N/A   Clear
9:53 AM 55.9 °F - 43.0 °F 62% 30.02 in 10.0 mi SSW 26.5 mph - 0.00 in   Scattered Clouds
10:53 AM 59.0 °F - 44.1 °F 58% 30.01 in 10.0 mi SSW 23.0 mph 31.1 mph N/A   Scattered Clouds
11:53 AM 63.0 °F - 43.0 °F 48% 29.96 in 10.0 mi SSW 17.3 mph 25.3 mph N/A   Clear
12:53 PM 68.0 °F - 39.9 °F 36% 29.90 in 10.0 mi SW 19.6 mph 31.1 mph N/A   Partly Cloudy
1:53 PM 69.1 °F - 35.1 °F 29% 29.85 in 10.0 mi SSW 20.7 mph 28.8 mph N/A   Scattered Clouds
2:53 PM 70.0 °F - 32.0 °F 25% 29.81 in 10.0 mi SW 20.7 mph 28.8 mph 0.00 in   Mostly Cloudy
3:53 PM 70.0 °F - 30.0 °F 23% 29.78 in 10.0 mi SSW 19.6 mph 27.6 mph N/A   Scattered Clouds
4:53 PM 73.0 °F - 25.0 °F 17% 29.74 in 10.0 mi SSW 28.8 mph 41.4 mph N/A   Partly Cloudy
5:53 PM 66.9 °F - 35.1 °F 31% 29.74 in 10.0 mi South 27.6 mph 39.1 mph N/A   Scattered Clouds
6:37 PM 60.1 °F - 43.0 °F 53% 29.98 in 10.0 mi SSE 16.1 mph - 0.00 in Rain , Thunderstorm Light Thunderstorms and Rain
6:53 PM 60.1 °F - 42.1 °F 51% 29.78 in 10.0 mi SSE 16.1 mph - 0.00 in   Mostly Cloudy
7:25 PM 60.1 °F - 37.9 °F 44% 30.01 in 8.0 mi West 18.4 mph 40.3 mph 0.02 in Rain Light Rain
7:53 PM 57.0 °F - 41.0 °F 55% 29.77 in 10.0 mi SSE 12.7 mph - 0.05 in Rain Light Rain
8:53 PM 55.0 °F - 43.0 °F 64% 29.75 in 10.0 mi South 17.3 mph - 0.00 in   Overcast
9:53 PM 53.1 °F - 41.0 °F 64% 29.75 in 10.0 mi South 15.0 mph - N/A   Scattered Clouds
10:53 PM 53.1 °F - 41.0 °F 64% 29.72 in 10.0 mi SSW 15.0 mph - N/A   Mostly Cloudy
11:53 PM 53.1 °F - 39.9 °F 61% 29.70 in 10.0 mi South 16.1 mph - N/A   Mostly Cloudy